Flag for Poland Weather past 2 weeks in Gdansk, Poland

Now
79 °F

Passing clouds.


Feels Like: 80 °F
Forecast: 66 / 82 °F
Wind: 10 mph from Northeast

Location: Gdansk-Rebiechowo

Current Time: Jul 25, 2014 at 1:35:19 PM

Latest Report: Jul 25, 2014 at 1:00 PM


Visibility: N/A

Pressure: 30.07 "Hg

Humidity: 51%

Dew point: 59 °F

Location of GdanskLocation

Historic Weather in Gdansk — Graph

°F

Gdansk temperature yesterday

Maximum temperature yesterday: 77 °F (at 1:30 PM)
Minimum temperature yesterday: 64 °F (at 4:00 AM)
Average temperature yesterday: 70 °F

Past Weeks' High & Low Weather Summary

 TemperatureHumidityPressure
High79 °F (Jul 25, 11:30 AM)100% (Jul 12, 3:30 PM)30.21 "Hg (Jul 12, 3:30 PM)
Low52 °F (Jul 19, 5:00 AM)36% (Jul 24, 1:30 PM)29.65 "Hg (Jul 13, 4:00 AM)
Average66 °F74%30.00 "Hg
* Reported Jul 10 12:00 Noon — Jul 25 12:30 PM, Gdansk, Weather by CustomWeather, © 2014

Note: Actual official high and low records may vary slightly from our data, if they occured in-between our weather recording intervals... More about our weather records

Advertising

Gdansk weather history for previous 24 hours

 ConditionsComfort  
Time TempWeatherWind HumidityBarometerVisibility
12:30 PM
Jul 25
79 °FSunny.13 mph51%30.07 "Hg10 mi
12:00 PM79 °FPassing clouds.13 mph51%30.07 "HgN/A
11:30 AM79 °FPassing clouds.12 mph48%30.07 "HgN/A
11:00 AM77 °FPassing clouds.10 mph51%30.07 "HgN/A
10:30 AM77 °FPassing clouds.9 mph54%30.07 "HgN/A
10:00 AM75 °FPassing clouds.10 mph57%30.07 "HgN/A
9:30 AM73 °FPassing clouds.9 mph61%30.07 "HgN/A
9:00 AM73 °FSunny.9 mph61%30.07 "Hg10 mi
8:30 AM73 °FPassing clouds.7 mph61%30.07 "HgN/A
8:00 AM72 °FPassing clouds.6 mph69%30.07 "HgN/A
7:30 AM70 °FPassing clouds.6 mph73%30.07 "HgN/A
7:00 AM70 °FPassing clouds.7 mph73%30.07 "HgN/A
6:30 AM68 °FPassing clouds.5 mph78%30.07 "HgN/A
6:00 AM66 °FSunny.5 mph83%30.07 "Hg10 mi
5:30 AM66 °FClear.7 mph83%30.07 "Hg10 mi
5:00 AM66 °FClear.7 mph78%30.07 "Hg10 mi
4:30 AM68 °FClear.9 mph73%30.07 "Hg10 mi
4:00 AM68 °FClear.9 mph73%30.04 "Hg10 mi
3:30 AM68 °FClear.8 mph73%30.04 "Hg10 mi
3:00 AM66 °FClear.7 mph83%30.07 "Hg10 mi
2:30 AM66 °FClear.8 mph88%30.07 "Hg10 mi
2:00 AM66 °FClear.8 mph88%30.07 "Hg10 mi
1:30 AM66 °FClear.8 mph88%30.07 "Hg10 mi
1:00 AM66 °FClear.8 mph88%30.07 "Hg10 mi
12:30 AM68 °FClear.8 mph83%30.07 "Hg10 mi
12:00 AM68 °FClear.8 mph78%30.07 "Hg10 mi
11:30 PM
Jul 24
68 °FClear.7 mph78%30.07 "Hg10 mi
11:00 PM68 °FClear.8 mph78%30.07 "Hg10 mi
10:30 PM68 °FClear.9 mph78%30.07 "Hg10 mi
10:00 PM68 °FClear.9 mph78%30.07 "Hg10 mi
9:30 PM68 °FPassing clouds.9 mph78%30.07 "HgN/A
9:00 PM70 °FPassing clouds.9 mph73%30.07 "HgN/A
8:30 PM70 °FPassing clouds.9 mph69%30.07 "HgN/A
8:00 PM70 °FSunny.10 mph64%30.07 "Hg10 mi
7:30 PM72 °FPassing clouds.13 mph61%30.07 "HgN/A
7:00 PM72 °FPassing clouds.12 mph57%30.04 "HgN/A
6:30 PM73 °FPassing clouds.13 mph53%30.07 "HgN/A
6:00 PM73 °FPassing clouds.12 mph57%30.07 "HgN/A
5:30 PM75 °FPassing clouds.15 mph50%30.07 "HgN/A
5:00 PM75 °FPassing clouds.15 mph50%30.07 "HgN/A
4:30 PM75 °FPassing clouds.15 mph50%30.07 "HgN/A
4:00 PM75 °FPassing clouds.14 mph47%30.07 "HgN/A
3:30 PM75 °FPassing clouds.14 mph47%30.07 "HgN/A
3:00 PM75 °FPassing clouds.13 mph44%30.07 "HgN/A
2:30 PM77 °FPassing clouds.14 mph39%30.07 "HgN/A
2:00 PM77 °FPassing clouds.13 mph39%30.09 "HgN/A
1:30 PM77 °FPassing clouds.16 mph36%30.09 "HgN/A
1:00 PM75 °FPassing clouds.17 mph41%30.09 "HgN/A
Weather by CustomWeather, © 2014

See weather overviewHow to use our weather pages